Location: The Saddle
(36.8333°N, 80.3417°W)
Time: 15:48:21
(UTC-05:00)

Courier 1B Rocket - Visible Passes

Search period start: 30 January 2023 00:00
Search period end: 09 February 2023 00:00
Orbit: 920 x 1202 km, 28.3° (Epoch: 30 January)

Date Brightness Start Highest point End Pass type
(mag) Time Alt. Az. Time Alt. Az. Time Alt. Az.
30 Jan 6.3 18:06:53 10° SW 18:12:03 27° SSE 18:17:19 10° ESE visible
30 Jan 5.7 19:59:02 10° WSW 20:04:50 39° S 20:05:17 39° SSE visible
31 Jan 5.9 18:58:17 10° WSW 19:03:56 37° S 19:08:03 18° ESE visible
31 Jan 6.5 20:51:04 10° WSW 20:54:24 27° SW 20:54:24 27° SW visible
01 Feb 5.7 19:50:10 10° WSW 19:55:54 38° S 19:57:12 35° SSE visible
01 Feb 7.7 21:43:29 10° WSW 21:43:34 10° WSW 21:43:34 10° WSW visible
02 Feb 5.9 18:49:18 10° WSW 18:55:01 38° S 19:00:00 14° ESE visible
02 Feb 6.4 20:42:24 10° WSW 20:46:23 28° SW 20:46:23 28° SW visible
03 Feb 5.9 19:41:23 10° WSW 19:46:59 35° S 19:49:13 27° SSE visible
03 Feb 7.5 21:35:11 10° WSW 21:35:35 11° WSW 21:35:35 11° WSW visible
04 Feb 6.0 18:40:25 10° WSW 18:46:07 38° S 18:51:52 10° ESE visible
04 Feb 6.4 20:33:51 10° WSW 20:38:28 25° SSW 20:38:28 25° SSW visible
05 Feb 6.2 19:32:41 10° WSW 19:38:03 30° SSW 19:41:23 19° SSE visible
05 Feb 7.5 21:27:23 10° WSW 21:27:46 11° SW 21:27:46 11° SW visible
06 Feb 6.2 18:31:37 10° WSW 18:37:11 34° S 18:42:47 10° SE visible
06 Feb 6.7 20:25:34 10° WSW 20:29:52 19° SSW 20:30:45 19° S visible
07 Feb 6.6 19:24:08 10° WSW 19:29:03 25° SSW 19:33:47 11° SSE visible
08 Feb 6.5 18:22:53 10° WSW 18:28:15 30° SSW 18:33:34 10° SE visible
08 Feb 7.1 20:17:51 10° SW 20:20:49 14° SSW 20:23:17 11° S visible
